User: anonymous   Login
Location: Unspecified
(0.0000°N, 0.0000°E)
Time: 19:16:22
(UTC+00:00)
Language:

USA 207 - Orbit

View from above orbital plane
View from above orbital plane
View from above satellite
View from above satellite

Ground track
Ground track

The orbit data is extracted from the following two-line orbital elements,

1 35815U 09047A   21127.62307381 0.00000000  00000-0  00000-0 0    08
2 35815   0.0790 139.8048 0012070 235.0502 124.8856  1.00270000    04
Epoch (UTC): 07 May 2021 14:57:13
Eccentricity: 0.0012070
inclination: 0.0790°
perigee height: 35736 km
apogee height: 35837 km
right ascension of ascending node: 139.8048°
argument of perigee: 235.0502°
revolutions per day: 1.00270000
mean anomaly at epoch: 124.8856°
orbit number at epoch: 0

The dashed part of the orbit path shows where the satellite is in the earth's shadow,  

DLR